Starlink 32351

operational
NORAD ID: 61529 Int'l Des: 2024-183 Owner: SPXS Country: US Constellation: starlink
LEOCIRCULAR

Über Starlink 32351

Beschreibung wird geladen...

Live-Position

3D-Globus wird geladen...

Nächste Überflüge

Höhenverlauf

Altitude vs Time

uPlot chart will show altitude changes over time

Zweizeiliger Elementsatz

1 61529U 24183W 25351.78770460 -.00000830 00000-0 -15899-4 0 9995
2 61529 53.1594 159.9931 0001637 95.0156 265.1031 15.30189339 67151
Epoch: 17. Dez. 2025 • Age: 31 hours

Aktueller Status

Höhe 487.8 km
Geschwindigkeit 7.62 km/s
Subsatellitenpunkt -36.18°S, 2.27°E
Startdatum 15. Okt. 2024
Alter 1.1 years
Typ internet

Technische Details

Klassifizierung Payload
Masse 730.00 kg
Trockenmasse 700.00 kg
Gesamtmasse 730.00 kg
Länge 0.30 m
Durchmesser 4.10 m
Spannweite 29.00 m
Form Box + pan
Hersteller SPXS
Bus-Typ Starlink V2M
Phasenstatus In Orbit
Besitzer/Staat SPXS/US

Große Konstellationen

Loading constellations...